Location: Banff
(51.1667°N, 115.5667°W)
Time: 07:18:56
(UTC+00:00)

S-56A Canister/Altair - Pass Details

Date: 26 November 2020
Orbit: 633 x 2499 km, 38.9° (Epoch: 21 January)

Event Time Altitude Azimuth Distance (km) Brightness Sun altitude
Rises 05:18:24 0° 239° (WSW) 4,880 11.8 -50.5°
Enters shadow 05:21:13 - 233° (SW) 3,976 11.3 -50.8°
Reaches altitude 10° 05:22:34 10° 230° (SW) 3,553 - -51.0°
Maximum altitude 05:29:29 28° 176° (S) 1,942 - -51.8°
Drops below altitude 10° 05:34:34 10° 119° (ESE) 2,554 - -52.4°
Sets 05:37:03 0° 107° (ESE) 3,310 - -52.7°
